Weather Roundup
Issued by NWS Chicago, IL

Home | Current Version | Previous Version | Text Only | Print | Product List | Glossary On
Versions: 1 2 3 4 5 6 7 8 9 10 11 12 13 14 15 16 17 18 19 20 21 22 23 24 25 26 27 28 29 30 31 32 33 34 35 36 37 38 39 40 41 42 43 44 45 46 47 48 49 50
000
NZUS59 KLOT 101808
HRRLOT

CHICAGO AREA WEATHER ROUNDUP
NATIONAL WEATHER SERVICE CHICAGO/ROMEOVILLE IL
1200 PM CST WED FEB 10 2016

NOTE: "FAIR" INDICATES FEW OR NO CLOUDS BELOW 12,000 FEET WITH NO
SIGNIFICANT WEATHER AND/OR OBSTRUCTIONS TO VISIBILITY.

* THESE STATIONS ARE NOT UNDER NWS QUALITY CONTROL. THEY ALSO MAY NOT
  REPORT WEATHER SUCH AS PRECIPITATION OR FOG.

ILZ005-006-012>014-019>023-101900-
NORTHEAST ILLINOIS

CITY           SKY/WX    TMP DP  RH WIND       PRES   REMARKS
OHARE          PTSUNNY   13   2  61 NW13      30.02F WCI  -2
6HR MIN TEMP:   9; 6HR MAX TEMP:  15;

MIDWAY         PTSUNNY   16   1  51 NW12      30.03F WCI   3
6HR MIN TEMP:  11; 6HR MAX TEMP:  16;

AURORA         MOSUNNY   15   4  61 NW13      30.05F WCI   1
6HR MIN TEMP:   8; 6HR MAX TEMP:  16;

LANSING*       PTSUNNY   16   3  57 NW9       30.03F WCI   4
JOLIET*        PTSUNNY   16   4  60 NW6       30.05F WCI   7
WAUKEGAN       CLOUDY    13   2  61 W8        30.01S WCI   2
6HR MIN TEMP:   7; 6HR MAX TEMP:  14;

DUPAGE AIRPORT PTSUNNY   14   2  58 NW12G17   30.02F WCI   0
6HR MIN TEMP:   4; 6HR MAX TEMP:  14; 6HR PCP: TRACE;

WHEELING       PTSUNNY   14   2  58 NW9       30.03F WCI   2
6HR MIN TEMP:   9; 6HR MAX TEMP:  15;

KANKAKEE*      PTSUNNY   15   3  59 NW9       30.07S WCI   3
MORRIS*        MOSUNNY   16   4  59 NW10      30.03F WCI   4
LEWIS AIRPORT* PTSUNNY   16   6  64 NW10G16   30.04F WCI   3
$$

WIZ051-052-058>065-066-070>072-101900-
SOUTHEAST WISCONSIN

CITY           SKY/WX    TMP DP  RH WIND       PRES   REMARKS
MILWAUKEE      MOSUNNY   13  -2  51 NW12      30.01F WCI  -1
6HR MIN TEMP:   9; 6HR MAX TEMP:  14;

KENOSHA*       CLOUDY    13   2  61 NW8       30.01F WCI   2
RACINE*        CLOUDY    15   0  51 NW14      30.02F WCI   0
BURLINGTON     CLOUDY    13   0  56 W10G16    30.01F WCI  -1
WAUKESHA       CLOUDY    10  -2  56 NW10      30.01F WCI  -3
WEST BEND      PTSUNNY   12  -2  52 NW13      30.00S WCI  -3
$$

INZ001>003-010>013-019-020-101900-
NORTHWEST INDIANA

CITY           SKY/WX    TMP DP  RH WIND       PRES   REMARKS
GARY*          PTSUNNY   18   1  49 W14       30.05S WCI   4
MICHIGAN CITY* NOT AVBL
RENSSELAER*    NOT AVBL
VALPARAISO     CLOUDY    17   6  62 W13       30.01F WCI   4
$$

LMZ740>746-101900-
SOUTHERN LAKE MICHIGAN

STATION/POSITION TIME  SKY/WX   TEMP WIND        PRES    VSBY
                                AIR  DIR/SP/G
                 (UTC)          (F)  (DEG/KT/KT) (MB)    (MI)
HARRISON CRIB    1700            14  300/ 13/ 14   N/A
BURNHAM HARBOR   1800            17  270/  7/ 12   N/A
CALUMET HARBOR   1700            14  330/ 10/ 13 1016.5F
BURNS HARBOR     1704            16  310/ 15/ 22 1017.3R
MICHIGAN CITY    1700            17  260/ 22/ 26   N/A
$$

ABBREVIATIONS USED IN REMARKS
   TC - TEMPERATURE IN CELSIUS
  WCI - WIND CHILL INDEX
   HX - HEAT INDEX
  VSB - VISIBILITY
$$



USA.gov is the U.S. government's official web portal to all federal, state and local government web resources and services.